Regional Weather Roundup
Issued by NWS Newport/Morehead, NC

Current Version | Previous Version | Text Only | Print | Product List | Glossary On
Versions: 1 2 3 4 5 6 7 8 9 10 11 12 13 14 15 16 17 18 19 20 21 22 23 24 25 26 27 28 29 30 31 32 33 34 35 36 37 38 39 40 41 42 43 44 45 46 47 48 49 50
000
ASUS42 KMHX 271510
RWRMHX
WEATHER ROUNDUP FOR EASTERN NORTH CAROLINA
NATIONAL WEATHER SERVICE NEWPORT/MOREHEAD CITY NC
1000 AM EST SAT DEC 27 2014

NOTE: "FAIR" INDICATES FEW OR NO CLOUDS BELOW 12,000 FEET
WITH NO SIGNIFICANT WEATHER AND/OR OBSTRUCTIONS TO VISIBILITY

NCZ015>017-031-032-045>047-102-103-271600-
NORTH COAST

CITY           SKY/WX    TMP DP  RH WIND       PRES   REMARKS
EDENTON          N/A     50  40  67 SW3       30.35S
ELIZABETH CITY SUNNY     53  41  63 SW3       30.35S
KITTY HAWK     SUNNY     51  42  71 W5        30.34S
MANTEO         SUNNY     46  43  87 W3        30.36R

$$

NCZ045>047-081-094-103-104-271600-
CENTRAL COAST

CITY           SKY/WX    TMP DP  RH WIND       PRES   REMARKS
FRISCO         SUNNY     53  44  71 CALM      30.36R
SWANQUARTER      N/A     52 N/A N/A SW3       30.33S

$$

NCZ095-097-098-100-101-271600-
SOUTHERN COAST

CITY           SKY/WX    TMP DP  RH WIND       PRES   REMARKS
BEAUFORT       SUNNY     54  44  69 NW5       30.37R
CEDAR ISLAND     N/A     54 N/A N/A CALM      30.41R
JACKSONVILLE   SUNNY     49  43  80 CALM      30.36R
PINEY ISLAND   SUNNY     55  43  63 CALM      30.37R
WILMINGTON     SUNNY     52  43  71 CALM      30.37R


$$

NCZ011>013-027>030-043-044-078>080-089-090>093-098-271600-
COASTAL PLAIN

CITY           SKY/WX    TMP DP  RH WIND       PRES   REMARKS
AHOSKIE        SUNNY     46  40  80 CALM      30.34F
CLINTON        SUNNY     48  42  80 CALM      30.37R
ELIZABETHTOWN  SUNNY     47  41  78 CALM      30.37R
GOLDSBORO      SUNNY     48  45  91 CALM      30.34R
GREENVILLE     SUNNY     48  41  76 CALM      30.36S
HAVELOCK       SUNNY     51  43  74 CALM      30.38R
KENANSVILLE    SUNNY     49  40  69 CALM      30.37S
KINSTON        SUNNY     50  39  66 CALM      30.36R
NEW BERN       SUNNY     50  43  77 CALM      30.37S
RICHLANDS      SUNNY     50  41  71 CALM      30.37S
ROCKY MOUNT    SUNNY     48  40  73 S3        30.35R
WASHINGTON     SUNNY     48  40  72 NW3       30.36S
WHITEVILLE     SUNNY     50  42  73 CALM      30.37R

$$

AMZ130-135-150-152-154-156-158-170-250-252-270-ANZ085-086-088-633-658-670-271600-
MARINE OBSERVATIONS

STATION/POSITION TIME  TEMP    WIND        PRES    WAVE   SWELL
                       AIR SEA DIR/SP/G            HT/PER HT/PER
                 (UTC) (F)     (DEG/KT/KT) (MB)    (FT/S) (FT/S)
CHESAPEAKE LIGHT 1400   48     250/  8/  9 1027.5
64 E VA BEACH    1500   52 52  270/  6/  8 1027.2    2/17   2/17
DUCK             1500   49 49  240/  7/  8 1027.0
2 E DUCK         1500      50                N/A     2/15   2/15
10 NE DUCK       1500      50                N/A     2/18   2/18
OREGON INLET     1500   51 53  250/  3/  4 1028.0
13E OREGON INLT  1500      50                N/A     2/18   2/18
HATTERAS CG      1500   53 54  350/  2/  2 1028.3
DIAMOND BUOY     1500   57                 1028.3    2/16
17 S OCRACOKE    NOT AVBL
CAPE LOOKOUT     1400   53     360/  4/  5 1027.8
BEAUFORT LAB     1500   51 54  360/  2/  3 1027.3
30 SE NEW RIVER  1500   59 61   40/  6/  8 1028.3    2/17   2/17
5 SE WRIGHTSVLE  NOT AVBL
225 S CAPE HAT   1354   69 74   80/  8/ 10 1027.8    3/17   3/17
41 SE CHARLESTON 1500   65 74   30/ 10/ 12 1026.8    2/ 6   2/ 6

$$


USA.gov is the U.S. government's official web portal to all federal, state and local government web resources and services.